Eau Claire, WI

5:35 AM CDT on September 27, 2016 (GMT -0500)
Chippewa Valley Regional

Weather History for KEAU - January, 2012

Change the Weather History Date:

Sunday, January 8, 2012

  Actual Average Record
Temperature  
Mean Temperature 28 °F 14 °F  
Max Temperature 40 °F 23 °F 53 °F (2003)
Min Temperature 16 °F 6 °F -30 °F (1894)
Degree Days  
Heating Degree Days 37 51  
Month to date heating degree days 328 403  
Since 1 July heating degree days 3081 3579  
Cooling Degree Days 0 0  
Month to date cooling degree days 0 0  
Year to date cooling degree days 0 0  
Moisture  
Dew Point 21 °F    
Average Humidity 75    
Maximum Humidity 96    
Minimum Humidity 54    
Precipitation  
Precipitation 0.00 in 0.03 in 0.46 in (1969)
Month to date precipitation 0.08 0.22  
Year to date precipitation 0.08 0.22  
Snow  
Snow 0.00 in 0.40 in 5.00 in (1969)
Month to date snowfall 0.8 3.0  
Since 1 July snowfall 8.9 18.8  
Snow Depth 0.00 in    
Sea Level Pressure  
Sea Level Pressure 30.23 in    
Wind  
Wind Speed 4 mph (SSW)    
Max Wind Speed 9 mph    
Max Gust Speed 12 mph    
Visibility 10 miles    
Events      
T = Trace of Precipitation, MM = Missing Value Source: NWS Daily Summary

Daily Weather History Graph

Daily Weather History Graph

Search for Another Location

Airport or City:

Trip Planner

Search our weather history database for the weather conditions in past years. The results will help you decide how hot, cold, wet, or windy it might be!

Date:

Astronomy

Jan. 08, 2012 Rise Set
Actual Time 7:43 AM CST 4:42 PM CST
Civil Twilight 7:09 AM CST 5:15 PM CST
Nautical Twilight 6:33 AM CST 5:52 PM CST
Astronomical Twilight 5:57 AM CST 6:27 PM CST
Moon 4:26 PM CST (1/8) 7:01 AM CST (1/8)
Length of Visible Light 10h 05m
Length of Day
8h 59m
Full, 100% of the Moon is Illuminated
Jan 8
Full
Jan 9
Full
Jan 16
Last Quarter
Jan 23
New
Jan 30
First Quarter

Hourly Weather History & Observations

Time (CST) Temp. Windchill Dew Point Humidity Pressure Visibility Wind Dir Wind Speed Gust Speed Precip Events Conditions
12:56 AM 21.0 °F - 18.0 °F 88% 30.23 in 10.0 mi Calm Calm - N/A   Clear
1:56 AM 19.0 °F - 17.1 °F 92% 30.24 in 10.0 mi Calm Calm - N/A   Clear
2:56 AM 17.6 °F 12.3 °F 15.8 °F 93% 30.20 in 10.0 mi SSW 3.5 mph - N/A   Clear
3:56 AM 19.0 °F 13.9 °F 16.0 °F 88% 30.25 in 10.0 mi SW 3.5 mph - N/A   Clear
4:56 AM 19.0 °F - 17.1 °F 92% 30.25 in 10.0 mi Calm Calm - N/A   Clear
5:56 AM 19.4 °F 12.8 °F 15.8 °F 86% 30.22 in 10.0 mi SW 4.6 mph - N/A   Clear
6:56 AM 19.9 °F - 18.0 °F 92% 30.29 in 10.0 mi Calm Calm - N/A   Clear
7:56 AM 18.0 °F 12.7 °F 15.1 °F 88% 30.29 in 9.0 mi SW 3.5 mph - N/A   Clear
8:56 AM 23.0 °F - 21.0 °F 92% 30.31 in 9.0 mi Calm Calm - N/A   Clear
9:56 AM 27.0 °F 23.0 °F 25.0 °F 92% 30.32 in 10.0 mi WSW 3.5 mph - N/A   Clear
10:56 AM 30.0 °F 26.5 °F 26.1 °F 85% 30.32 in 10.0 mi SSW 3.5 mph - N/A   Clear
11:56 AM 34.0 °F 31.0 °F 26.1 °F 73% 30.29 in 10.0 mi South 3.5 mph - N/A   Clear
12:56 PM 37.0 °F 31.6 °F 26.1 °F 65% 30.26 in 10.0 mi SSW 6.9 mph - N/A   Clear
1:56 PM 39.2 °F 33.6 °F 26.6 °F 61% 30.21 in 10.0 mi West 8.1 mph - N/A   Clear
2:56 PM 39.0 °F 34.8 °F 25.0 °F 57% 30.24 in 10.0 mi SW 5.8 mph - N/A   Clear
3:56 PM 37.9 °F 34.4 °F 24.1 °F 57% 30.23 in 10.0 mi WSW 4.6 mph - N/A   Clear
4:56 PM 33.8 °F 30.8 °F 23.0 °F 65% 30.18 in 10.0 mi SW 3.5 mph - N/A   Clear
5:56 PM 32.0 °F 27.5 °F 23.0 °F 69% 30.21 in 10.0 mi SSW 4.6 mph - N/A   Clear
6:56 PM 30.0 °F 25.2 °F 21.9 °F 72% 30.22 in 10.0 mi SSW 4.6 mph - N/A   Clear
7:56 PM 28.0 °F 24.2 °F 21.9 °F 78% 30.22 in 10.0 mi SSW 3.5 mph - N/A   Clear
8:56 PM 27.0 °F 20.5 °F 21.9 °F 81% 30.19 in 10.0 mi South 5.8 mph - N/A   Clear
9:56 PM 28.0 °F 24.2 °F 23.0 °F 81% 30.18 in 10.0 mi SSW 3.5 mph - N/A   Clear
10:56 PM 28.4 °F 22.2 °F 23.0 °F 80% 30.11 in 10.0 mi South 5.8 mph - N/A   Clear
11:56 PM 30.0 °F 23.2 °F 24.1 °F 79% 30.11 in 10.0 mi SSW 6.9 mph - N/A   Clear